FW3849 Weather Reports


time (UTC)temp
C
wind
direction
speed
KPH
gust
KPH
rain 1hr
cm
rain 24hr
cm
rain mn
cm
humidity
%
barometer
mb
20260505035505 23 202 11.3 17.7 0.00 0.00 0.00 46 1007.4
20260505035003 23 196 4.8 9.7 0.00 0.00 0.00 46 1007.2
20260505034503 23 185 4.8 9.7 0.00 0.00 0.00 46 1007.2
20260505034003 24 190 4.8 12.9 0.00 0.00 0.00 46 1007.4
20260505033502 24 202 4.8 16.1 0.00 0.00 0.00 45 1007.2
20260505033002 24 181 6.4 17.7 0.00 0.00 0.00 45 1007.2
20260505032502 24 201 8.0 17.7 0.00 0.00 0.00 44 1007.1
20260505032004 24 197 9.7 24.1 0.00 0.00 0.00 44 1007.0
20260505031502 25 200 12.9 24.1 0.00 0.00 0.00 43 1007.0
20260505031001 25 191 9.7 17.7 0.00 0.00 0.00 43 1007.0
20260505030501 25 194 9.7 20.9 0.00 0.00 0.00 43 1006.9
20260505025600 25 185 9.7 20.9 0.00 0.00 0.00 43 1006.6
20260505025100 25 204 12.9 20.9 0.00 0.00 0.00 43 1006.5
20260505024602 25 197 11.3 19.3 0.00 0.00 0.00 43 1006.6
20260505024102 25 196 6.4 17.7 0.00 0.00 0.00 42 1006.8
20260505023559 25 175 9.7 17.7 0.00 0.00 0.00 41 1006.8
20260505023108 25 191 6.4 16.1 0.00 0.00 0.00 41 1006.8
20260505022559 25 191 6.4 14.5 0.00 0.00 0.00 41 1006.7
20260505022059 25 202 6.4 16.1 0.00 0.00 0.00 40 1006.5
20260505021601 25 183 6.4 16.1 0.00 0.00 0.00 40 1006.6
20260505021058 26 169 6.4 17.7 0.00 0.00 0.00 39 1006.4
20260505020557 26 190 6.4 16.1 0.00 0.00 0.00 38 1006.4
20260505015557 26 220 4.8 16.1 0.00 0.00 0.00 38 1006.5
20260505015059 26 133 3.2 14.5 0.00 0.00 0.00 38 1006.4
20260505014600 26 185 6.4 14.5 0.00 0.00 0.00 38 1006.3
20260505014056 26 175 6.4 16.1 0.00 0.00 0.00 37 1006.2
20260505013556 26 150 8.0 16.1 0.00 0.00 0.00 37 1006.1
20260505013055 26 164 8.0 16.1 0.00 0.00 0.00 37 1006.1
20260505012556 26 188 8.0 16.1 0.00 0.00 0.00 36 1006.0
20260505012058 27 191 8.0 16.1 0.00 0.00 0.00 36 1005.9
20260505011556 27 149 8.0 19.3 0.00 0.00 0.00 35 1005.9
20260505011057 27 185 9.7 19.3 0.00 0.00 0.00 34 1006.0
20260505010554 27 218 11.3 19.3 0.00 0.00 0.00 33 1006.0
20260505005556 28 193 11.3 17.7 0.00 0.00 0.00 32 1006.0
20260505005055 28 172 9.7 19.3 0.00 0.00 0.00 31 1006.0
20260505004554 28 207 12.9 27.4 0.00 0.00 0.00 31 1006.0
20260505004054 28 205 14.5 27.4 0.00 0.00 0.00 30 1005.9
20260505003557 28 168 14.5 27.4 0.00 0.00 0.00 29 1006.0
20260505003059 28 229 16.1 25.7 0.00 0.00 0.00 29 1006.1
20260505002552 28 201 11.3 25.7 0.00 0.00 0.00 29 1006.1
20260505002052 29 199 12.9 20.9 0.00 0.00 0.00 28 1006.2
20260505001551 28 192 16.1 22.5 0.00 0.00 0.00 28 1006.2
20260505001050 28 184 16.1 22.5 0.00 0.00 0.00 28 1006.3
20260505000549 29 206 14.5 24.1 0.00 0.00 0.00 29 1006.3
20260504235551 29 204 12.9 24.1 0.00 0.00 0.00 29 1006.5
20260504235049 29 207 16.1 22.5 0.00 0.00 0.00 29 1006.3
20260504234548 28 214 14.5 24.1 0.00 0.00 0.00 29 1006.5
20260504234048 28 207 17.7 24.1 0.00 0.00 0.00 29 1006.6
20260504233548 28 198 14.5 24.1 0.00 0.00 0.00 29 1006.7
20260504233049 29 200 17.7 24.1 0.00 0.00 0.00 28 1006.7
20260504232546 29 213 14.5 24.1 0.00 0.00 0.00 28 1006.7
20260504232049 29 215 14.5 24.1 0.00 0.00 0.00 28 1006.8
20260504231547 29 231 14.5 25.7 0.00 0.00 0.00 28 1006.9
20260504231144 30 220 16.1 19.3 0.00 0.00 0.00 27 1006.9
20260504230546 30 200 16.1 24.1 0.00 0.00 0.00 26 1006.8
20260504225545 30 177 16.1 22.5 0.00 0.00 0.00 26 1006.9
20260504225045 30 208 14.5 25.7 0.00 0.00 0.00 26 1006.9
20260504224542 30 220 16.1 25.7 0.00 0.00 0.00 26 1007.0
20260504224045 30 233 16.1 22.5 0.00 0.00 0.00 25 1007.0
20260504223541 30 210 11.3 19.3 0.00 0.00 0.00 26 1007.2
20260504223040 30 245 9.7 27.4 0.00 0.00 0.00 25 1007.2
20260504222540 30 224 12.9 27.4 0.00 0.00 0.00 26 1007.2
20260504222041 30 218 8.0 19.3 0.00 0.00 0.00 25 1007.2
20260504221541 30 237 12.9 22.5 0.00 0.00 0.00 26 1007.3
20260504221038 30 245 11.3 24.1 0.00 0.00 0.00 26 1007.2
20260504220537 30 189 11.3 19.3 0.00 0.00 0.00 26 1007.2
20260504215537 30 215 12.9 19.3 0.00 0.00 0.00 26 1007.4
20260504215036 30 204 14.5 19.3 0.00 0.00 0.00 26 1007.6
20260504214546 30 196 11.3 20.9 0.00 0.00 0.00 26 1007.7
20260504214035 29 200 14.5 20.9 0.00 0.00 0.00 26 1007.7
20260504213534 29 212 12.9 19.3 0.00 0.00 0.00 26 1007.9
20260504213040 29 202 12.9 19.3 0.00 0.00 0.00 27 1007.9
20260504212534 30 193 12.9 19.3 0.00 0.00 0.00 26 1007.9
20260504212032 29 208 4.8 22.5 0.00 0.00 0.00 27 1008.0
20260504211531 29 271 12.9 22.5 0.00 0.00 0.00 28 1008.2
20260504211029 29 191 9.7 14.5 0.00 0.00 0.00 28 1008.2
20260504210529 28 179 12.9 25.7 0.00 0.00 0.00 28 1008.3
20260504205528 28 202 11.3 25.7 0.00 0.00 0.00 28 1008.7
20260504205027 28 200 16.1 20.9 0.00 0.00 0.00 28 1008.7
20260504204528 28 218 8.0 20.9 0.00 0.00 0.00 29 1008.8
20260504204025 28 247 12.9 20.9 0.00 0.00 0.00 29 1008.7
20260504203524 28 214 12.9 20.9 0.00 0.00 0.00 29 1008.9
20260504203024 28 207 11.3 20.9 0.00 0.00 0.00 31 1008.9
20260504202522 28 201 11.3 20.9 0.00 0.00 0.00 30 1008.9
20260504202021 28 177 11.3 20.9 0.00 0.00 0.00 31 1009.1
20260504201519 28 189 14.5 20.9 0.00 0.00 0.00 31 1009.3
20260504201018 27 206 8.0 16.1 0.00 0.00 0.00 32 1009.3
20260504200518 27 248 9.7 20.9 0.00 0.00 0.00 32 1009.4
20260504195519 27 223 8.0 19.3 0.00 0.00 0.00 32 1009.4
20260504195019 27 198 9.7 19.3 0.00 0.00 0.00 32 1009.6
20260504194521 27 214 9.7 19.3 0.00 0.00 0.00 33 1009.6
20260504194021 27 216 12.9 20.9 0.00 0.00 0.00 33 1009.7
20260504193519 27 218 14.5 20.9 0.00 0.00 0.00 32 1009.6
20260504193017 27 219 8.0 20.9 0.00 0.00 0.00 33 1009.7
20260504192516 27 258 6.4 19.3 0.00 0.00 0.00 32 1009.9
20260504192016 27 256 9.7 19.3 0.00 0.00 0.00 33 1010.0
20260504191527 27 208 12.9 19.3 0.00 0.00 0.00 33 1009.9
20260504191016 27 250 12.9 17.7 0.00 0.00 0.00 32 1009.9
20260504190516 27 245 11.3 17.7 0.00 0.00 0.00 32 1009.9
20260504185514 27 212 9.7 19.3 0.00 0.00 0.00 32 1010.0
20260504185013 27 204 11.3 22.5 0.00 0.00 0.00 32 1009.9
20260504184515 27 243 16.1 22.5 0.00 0.00 0.00 33 1010.0
20260504184012 27 228 11.3 20.9 0.00 0.00 0.00 32 1010.1
20260504183511 27 233 14.5 20.9 0.00 0.00 0.00 33 1010.3
20260504183020 27 173 9.7 20.9 0.00 0.00 0.00 33 1010.6
20260504182507 26 202 11.3 22.5 0.00 0.00 0.00 33 1010.7
20260504182007 26 216 14.5 22.5 0.00 0.00 0.00 33 1010.8
20260504181506 26 197 12.9 19.3 0.00 0.00 0.00 33 1010.8
20260504181005 26 202 14.5 19.3 0.00 0.00 0.00 36 1010.8
20260504180509 25 198 11.3 20.9 0.00 0.00 0.00 37 1011.0
20260504175604 25 206 8.0 20.9 0.00 0.00 0.00 37 1011.0
20260504175003 25 228 9.7 22.5 0.00 0.00 0.00 37 1011.2
20260504174503 25 187 12.9 22.5 0.00 0.00 0.00 37 1011.3
20260504174001 25 196 12.9 20.9 0.00 0.00 0.00 38 1011.1
20260504173503 25 212 11.3 19.3 0.00 0.00 0.00 38 1011.2
20260504173106 25 209 12.9 19.3 0.00 0.00 0.00 38 1011.3
20260504172558 24 238 11.3 20.9 0.00 0.00 0.00 39 1011.6
20260504172057 24 200 11.3 20.9 0.00 0.00 0.00 40 1011.7
20260504171557 23 206 4.8 20.9 0.00 0.00 0.00 40 1011.6
20260504171055 23 142 8.0 17.7 0.00 0.00 0.00 43 1011.7
20260504170553 22 171 6.4 20.9 0.00 0.00 0.00 43 1011.6
20260504151035 20 205 16.1 25.7 0.00 0.00 0.00 50 1012.5
20260504150536 19 243 14.5 24.1 0.00 0.00 0.00 51 1012.4
20260504141028 18 195 4.8 16.1 0.00 0.00 0.00 54 1012.5
20260504140528 17 194 11.3 19.3 0.00 0.00 0.00 55 1012.3
20260504130522 17 143 6.4 12.9 0.00 0.00 0.00 55 1012.3
20260504110508 18 204 8.0 14.5 0.00 0.00 0.00 47 1011.5
20260504100501 18 137 3.2 9.7 0.00 0.00 0.00 45 1011.7
20260504081555 19 191 4.8 14.5 0.00 0.00 0.00 40 1012.5
20260504081057 20 168 8.0 17.7 0.00 0.00 0.00 40 1012.4
20260504080554 20 188 9.7 17.7 0.00 0.00 0.00 40 1012.6
20260504050541 20 194 8.0 19.3 0.00 0.00 0.00 39 1014.6
20260504045542 20 188 11.3 20.9 0.00 0.00 0.00 39 1014.7
20260504045041 20 206 9.7 16.1 0.00 0.00 0.00 39 1014.7
20260504044547 20 206 8.0 19.3 0.00 0.00 0.00 38 1014.9
20260504044041 20 205 12.9 19.3 0.00 0.00 0.00 38 1015.1
20260504043542 20 183 6.4 16.1 0.00 0.00 0.00 39 1015.1
20260504043041 20 180 4.8 14.5 0.00 0.00 0.00 39 1015.0
20260504042541 20 202 8.0 14.5 0.00 0.00 0.00 39 1015.0
20260504042041 21 151 6.4 17.7 0.00 0.00 0.00 39 1015.1
20260504041540 21 180 6.4 24.1 0.00 0.00 0.00 38 1015.1
20260504041040 21 193 14.5 24.1 0.00 0.00 0.00 38 1015.1
20260504040540 21 202 14.5 24.1 0.00 0.00 0.00 38 1015.0
20260504035547 21 204 14.5 24.1 0.00 0.00 0.00 38 1015.0